CW0238 Weather Reports


Display with metric or nautical units.
time (UTC)temp
F
wind
direction
speed
MPH
gust
MPH
rain 1hr
in
rain 24hr
in
rain mn
in
humidity
%
barometer
mb
20260505001454 75 163 0.0 4.0 0.00 0.06 0.06 45 1005.4
20260505000955 75 165 1.0 4.0 0.00 0.06 0.06 45 1005.5
20260505000454 75 210 1.0 4.0 0.00 0.06 0.06 45 1005.6
20260504235955 75 224 1.0 2.0 0.00 0.06 0.06 46 1005.5
20260504234955 76 160 1.0 4.0 0.00 0.06 0.06 45 1005.6
20260504234450 76 149 0.0 2.0 0.00 0.06 0.06 45 1005.6
20260504233950 76 138 0.0 4.0 0.00 0.06 0.06 45 1005.8
20260504233447 76 156 0.0 4.0 0.00 0.06 0.06 44 1005.9
20260504232945 76 209 0.0 1.0 0.00 0.06 0.06 44 1006.1
20260504232448 77 215 0.0 6.0 0.00 0.06 0.06 44 1006.3
20260504231945 77 215 0.0 6.0 0.00 0.06 0.06 44 1006.3
20260504231446 77 151 0.0 2.0 0.00 0.06 0.06 44 1006.6
20260504230945 77 319 0.0 2.0 0.00 0.06 0.06 44 1006.7
20260504230459 77 273 0.0 3.0 0.00 0.06 0.06 44 1006.8
20260504225944 77 294 0.0 3.0 0.00 0.06 0.06 44 1006.9
20260504225443 77 175 0.0 3.0 0.00 0.06 0.06 44 1006.9
20260504224942 77 94 1.0 3.0 0.00 0.06 0.06 44 1006.9
20260504224707 77 130 1.0 6.0 0.00 0.06 0.06 43 1007.0
20260504223942 78 307 1.0 6.0 0.00 0.06 0.06 43 1007.1
20260504223435 78 245 1.0 7.0 0.00 0.06 0.06 43 1007.1
20260504222936 78 275 1.0 7.0 0.00 0.06 0.06 43 1007.2
20260504222437 78 260 0.0 4.0 0.00 0.06 0.06 44 1007.3
20260504221937 78 286 0.0 3.0 0.00 0.06 0.06 43 1007.4
20260504221710 78 214 0.0 3.0 0.00 0.06 0.06 44 1007.3
20260504220936 78 5 1.0 7.0 0.00 0.06 0.06 45 1007.4
20260504220435 79 286 1.0 7.0 0.00 0.06 0.06 43 1007.4
20260504215933 80 321 1.0 6.0 0.00 0.06 0.06 43 1007.4
20260504215434 80 239 2.0 7.0 0.00 0.06 0.06 43 1007.4
20260504214933 79 152 2.0 7.0 0.00 0.06 0.06 43 1007.3
20260504214427 79 150 1.0 5.0 0.00 0.06 0.06 43 1007.3
20260504213925 81 161 2.0 7.0 0.00 0.06 0.06 43 1007.3
20260504213424 80 199 2.0 7.0 0.00 0.06 0.06 42 1007.3
20260504212917 81 152 1.0 6.0 0.00 0.06 0.06 43 1007.3
20260504212419 80 198 1.0 6.0 0.00 0.06 0.06 43 1007.4
20260504211918 81 155 1.0 8.0 0.00 0.06 0.06 44 1007.5
20260504211418 81 94 1.0 8.0 0.00 0.06 0.06 43 1007.5
20260504210918 81 205 2.0 11.0 0.00 0.06 0.06 45 1007.5
20260504210414 80 271 2.0 11.0 0.00 0.06 0.06 44 1007.5
20260504205915 81 143 1.0 6.0 0.00 0.06 0.06 45 1007.5
20260504205414 80 221 1.0 6.0 0.00 0.06 0.06 46 1007.5
20260504204909 80 227 2.0 5.0 0.00 0.06 0.06 45 1007.5
20260504203908 80 107 1.0 6.0 0.00 0.06 0.06 45 1007.6
20260504203402 80 153 2.0 9.0 0.00 0.06 0.06 45 1007.6
20260504202900 80 162 2.0 10.0 0.00 0.06 0.06 43 1007.6
20260504202359 79 159 1.0 10.0 0.00 0.06 0.06 45 1007.6
20260504201900 79 231 1.0 13.0 0.00 0.06 0.06 45 1007.6
20260504201403 80 96 1.0 13.0 0.00 0.06 0.06 45 1007.7
20260504200356 80 42 1.0 6.0 0.00 0.06 0.06 44 1007.9
20260504195857 80 228 1.0 8.0 0.00 0.06 0.06 45 1007.9
20260504195355 80 232 2.0 8.0 0.00 0.06 0.06 44 1008.0
20260504194854 81 184 1.0 5.0 0.00 0.06 0.06 41 1008.1
20260504194355 81 343 1.0 7.0 0.00 0.06 0.06 47 1008.1
20260504193857 80 101 1.0 7.0 0.00 0.06 0.06 43 1008.1
20260504193355 80 103 1.0 6.0 0.00 0.06 0.06 43 1008.2
20260504192853 80 178 1.0 7.0 0.00 0.06 0.06 43 1008.3
20260504192614 80 265 1.0 8.0 0.00 0.06 0.06 42 1008.3
20260504192119 80 225 1.0 8.0 0.00 0.06 0.06 44 1008.5
20260504191351 79 212 1.0 5.0 0.00 0.06 0.06 43 1008.5
20260504190850 79 193 1.0 6.0 0.00 0.06 0.06 43 1008.6
20260504190349 79 123 1.0 8.0 0.00 0.06 0.06 44 1008.7
20260504185849 80 15 1.0 8.0 0.00 0.06 0.06 45 1008.9
20260504185352 80 211 1.0 6.0 0.00 0.06 0.06 44 1008.8
20260504184849 79 177 1.0 9.0 0.00 0.06 0.06 45 1008.9
20260504184349 79 321 1.0 9.0 0.00 0.06 0.06 45 1008.9
20260504184118 79 254 1.0 8.0 0.00 0.06 0.06 45 1009.0
20260504183350 78 155 2.0 10.0 0.00 0.06 0.06 47 1008.9
20260504182846 78 313 2.0 10.0 0.00 0.06 0.06 45 1008.9
20260504182344 78 319 1.0 7.0 0.00 0.06 0.06 47 1009.0
20260504182109 78 244 1.0 9.0 0.00 0.06 0.06 46 1008.9
20260504181342 78 284 1.0 9.0 0.00 0.06 0.06 46 1009.0
20260504180843 78 325 2.0 8.0 0.00 0.06 0.06 47 1009.0
20260504180339 78 268 1.0 8.0 0.00 0.06 0.06 48 1009.1
20260504175841 78 169 1.0 8.0 0.00 0.06 0.06 46 1009.0
20260504175603 78 150 1.0 6.0 0.00 0.06 0.06 49 1009.0
20260504174841 78 335 1.0 5.0 0.00 0.06 0.06 53 1008.9
20260504174611 77 242 2.0 7.0 0.00 0.06 0.06 50 1009.0
20260504174105 76 130 2.0 7.0 0.00 0.06 0.06 50 1008.9
20260504173335 76 163 1.0 8.0 0.00 0.06 0.06 50 1008.9
20260504172835 76 99 1.0 8.0 0.00 0.06 0.06 49 1008.9
20260504172337 76 197 1.0 7.0 0.00 0.06 0.06 50 1009.0
20260504171831 76 19 1.0 8.0 0.00 0.06 0.06 52 1009.1
20260504171330 75 201 1.0 8.0 0.00 0.06 0.06 50 1009.0
20260504170828 75 196 1.0 4.0 0.00 0.06 0.06 49 1009.0
20260504170326 76 298 1.0 8.0 0.00 0.06 0.06 51 1009.1
20260504160313 72 0 0.0 3.0 0.00 0.06 0.06 55 1009.6
20260504150801 67 180 0.0 6.0 0.00 0.06 0.06 61 1010.1
20260504150303 66 200 0.0 4.0 0.00 0.06 0.06 62 1010.3
20260504141246 61 219 0.0 3.0 0.00 0.06 0.06 71 1010.5
20260504140745 60 225 0.0 1.0 0.00 0.06 0.06 72 1010.6
20260504140510 59 234 0.0 0.0 0.00 0.06 0.06 74 1010.7
20260504130733 54 254 0.0 0.0 0.01 0.06 0.06 84 1011.4
20260504130232 54 254 0.0 0.0 0.01 0.06 0.06 85 1011.4
20260504120221 53 271 0.0 0.0 0.04 0.05 0.05 84 1012.3
20260504110703 56 255 0.0 1.0 0.00 0.01 0.01 66 1011.4
20260504110201 56 275 0.0 5.0 0.00 0.01 0.01 66 1011.5
20260504100143 55 283 0.0 1.0 0.01 0.01 0.01 69 1011.9
20260504081620 59 200 0.0 8.0 0.00 0.00 0.00 57 1010.5
20260504081119 59 216 0.0 8.0 0.00 0.00 0.00 57 1010.6
20260504080619 59 128 0.0 3.0 0.00 0.00 0.00 57 1010.7
20260504080115 59 157 0.0 1.0 0.00 0.00 0.00 58 1010.6
20260504070109 58 255 0.0 4.0 0.00 0.00 0.00 60 1011.6
20260504050537 60 178 0.0 7.0 0.00 0.00 0.00 53 1012.6
20260504045536 59 156 0.0 6.0 0.00 0.00 0.00 54 1012.8
20260504045253 58 211 0.0 2.0 0.00 0.00 0.00 56 1012.8
20260504044528 57 210 0.0 2.0 0.00 0.00 0.00 60 1012.8
20260504044028 55 190 0.0 1.0 0.00 0.00 0.00 67 1012.9
20260504043525 53 188 0.0 0.0 0.00 0.00 0.00 73 1013.1
20260504043024 53 196 0.0 0.0 0.00 0.00 0.00 73 1013.1
20260504042523 52 196 0.0 0.0 0.00 0.00 0.00 73 1013.0
20260504042023 52 196 0.0 0.0 0.00 0.00 0.00 73 1012.8
20260504041524 52 196 0.0 0.0 0.00 0.00 0.00 75 1013.1
20260504041017 52 196 0.0 0.0 0.00 0.00 0.00 73 1013.1
20260504040517 52 196 0.0 0.0 0.00 0.00 0.00 74 1013.1
20260504040244 51 196 0.0 0.0 0.00 0.00 0.00 74 1013.1
20260504035733 51 196 0.0 0.0 0.00 0.00 0.00 74 1013.0
20260504035008 51 196 0.0 0.0 0.00 0.00 0.00 75 1013.2
20260504034506 51 196 0.0 0.0 0.00 0.00 0.00 74 1013.3
20260504034004 51 196 0.0 0.0 0.00 0.00 0.00 73 1013.3
20260504033502 52 196 0.0 0.0 0.00 0.00 0.00 72 1013.3
20260504032959 52 196 0.0 0.0 0.00 0.00 0.00 72 1013.5
20260504032720 51 196 0.0 0.0 0.00 0.00 0.00 74 1013.5
20260504031958 51 196 0.0 0.0 0.00 0.00 0.00 73 1013.6
20260504031457 51 196 0.0 0.0 0.00 0.00 0.00 73 1013.7
20260504031002 51 196 0.0 0.0 0.00 0.00 0.00 74 1013.7
20260504030456 51 196 0.0 0.0 0.00 0.00 0.00 74 1013.8
20260504030218 52 196 0.0 0.0 0.00 0.00 0.00 71 1013.9
20260504025454 52 196 0.0 0.0 0.00 0.00 0.00 71 1013.8
20260504024952 52 196 0.0 0.0 0.00 0.00 0.00 71 1013.9
20260504024451 52 196 0.0 0.0 0.00 0.00 0.00 71 1013.9
20260504023949 52 196 0.0 0.0 0.00 0.00 0.00 70 1013.9
20260504023444 52 196 0.0 0.0 0.00 0.00 0.00 70 1013.9
20260504022943 52 196 0.0 0.0 0.00 0.00 0.00 71 1013.9
20260504022439 52 196 0.0 0.0 0.00 0.00 0.00 70 1014.0
20260504021938 53 196 0.0 0.0 0.00 0.00 0.00 70 1014.0
20260504021439 53 196 0.0 0.0 0.00 0.00 0.00 68 1014.0
20260504020936 53 196 0.0 0.0 0.00 0.00 0.00 67 1014.1
20260504020435 53 196 0.0 0.0 0.00 0.00 0.00 66 1014.0
20260504015935 53 196 0.0 0.0 0.00 0.00 0.00 67 1014.0
20260504015433 54 196 0.0 0.0 0.00 0.00 0.00 66 1013.9
20260504014934 54 196 0.0 0.0 0.00 0.00 0.00 66 1013.9
20260504014427 54 196 0.0 0.0 0.00 0.00 0.00 65 1014.0
20260504013926 55 196 0.0 0.0 0.00 0.00 0.00 63 1013.9
20260504013424 55 196 0.0 0.0 0.00 0.00 0.00 63 1013.9
20260504012922 55 196 0.0 0.0 0.00 0.00 0.00 61 1013.9
20260504012416 55 196 0.0 0.0 0.00 0.00 0.00 61 1013.9
20260504012146 56 196 0.0 0.0 0.00 0.00 0.00 59 1013.9
20260504011429 56 196 0.0 0.0 0.00 0.00 0.00 57 1013.9
20260504010910 57 196 0.0 0.0 0.00 0.00 0.00 57 1013.7
20260504010408 57 196 0.0 0.0 0.00 0.00 0.00 56 1013.5
20260504005909 58 196 0.0 0.0 0.00 0.00 0.00 60 1013.4
20260504005401 58 196 0.0 0.0 0.00 0.00 0.00 58 1013.3
20260504004900 59 196 0.0 0.0 0.00 0.00 0.00 54 1013.4
20260504004402 59 196 0.0 0.0 0.00 0.00 0.00 52 1013.3
20260504003858 60 196 0.0 0.0 0.00 0.00 0.00 50 1013.4
20260504003358 61 196 0.0 0.0 0.00 0.00 0.00 48 1013.3
20260504002853 61 196 0.0 0.0 0.00 0.00 0.00 46 1013.3
20260504002351 62 196 0.0 2.0 0.00 0.00 0.00 46 1013.2
20260504002109 62 196 0.0 2.0 0.00 0.00 0.00 46 1013.1